Year,Month,Day,Hour,Minute,Value (Times are PST for temperature in C)
2013,09,10,00,00,14.20
2013,09,10,00,01,14.10
2013,09,10,00,02,14.10
2013,09,10,00,03,14.10
2013,09,10,00,04,14.10
2013,09,10,00,05,14.10
2013,09,10,00,06,14.00
2013,09,10,00,07,14.00
2013,09,10,00,08,14.00
2013,09,10,00,09,13.90
2013,09,10,00,10,13.90
2013,09,10,00,11,13.90
2013,09,10,00,12,13.90
2013,09,10,00,13,13.90
2013,09,10,00,14,13.80
2013,09,10,00,15,13.80
2013,09,10,00,16,13.80
2013,09,10,00,17,13.80
2013,09,10,00,18,13.80
2013,09,10,00,19,13.80
2013,09,10,00,20,13.80
2013,09,10,00,21,13.80
2013,09,10,00,22,13.70
2013,09,10,00,23,13.70
2013,09,10,00,24,13.70
2013,09,10,00,25,13.70
2013,09,10,00,26,13.70
2013,09,10,00,27,13.70
2013,09,10,00,28,13.70
2013,09,10,00,29,13.70
2013,09,10,00,30,13.70
2013,09,10,00,31,13.70
2013,09,10,00,32,13.70
2013,09,10,00,33,13.60
2013,09,10,00,34,13.60
2013,09,10,00,35,13.60
2013,09,10,00,36,13.60
2013,09,10,00,37,13.60
2013,09,10,00,38,13.60
2013,09,10,00,39,13.50
2013,09,10,00,40,13.50
2013,09,10,00,41,13.50
2013,09,10,00,42,13.50
2013,09,10,00,43,13.40
2013,09,10,00,44,13.40
2013,09,10,00,45,13.40
2013,09,10,00,46,13.40
2013,09,10,00,47,13.40
2013,09,10,00,48,13.40
2013,09,10,00,49,13.40
2013,09,10,00,50,13.30
2013,09,10,00,51,13.30
2013,09,10,00,52,13.30
2013,09,10,00,53,13.30
2013,09,10,00,54,13.30
2013,09,10,00,55,13.20
2013,09,10,00,56,13.20
2013,09,10,00,57,13.20
2013,09,10,00,58,13.20
2013,09,10,00,59,13.20
2013,09,10,01,00,13.20
2013,09,10,01,01,13.20
2013,09,10,01,02,13.20
2013,09,10,01,03,13.20
2013,09,10,01,04,13.20
2013,09,10,01,05,13.20
2013,09,10,01,06,13.20
2013,09,10,01,07,13.10
2013,09,10,01,08,13.10
2013,09,10,01,09,13.10
2013,09,10,01,10,13.10
2013,09,10,01,11,13.10
2013,09,10,01,12,13.00
2013,09,10,01,13,13.00
2013,09,10,01,14,13.00
2013,09,10,01,15,13.00
2013,09,10,01,16,13.00
2013,09,10,01,17,13.00
2013,09,10,01,18,12.90
2013,09,10,01,19,12.90
2013,09,10,01,20,12.90
2013,09,10,01,21,12.90
2013,09,10,01,22,12.90
2013,09,10,01,23,12.90
2013,09,10,01,24,12.90
2013,09,10,01,25,12.90
2013,09,10,01,26,12.90
2013,09,10,01,27,12.90
2013,09,10,01,28,12.90
2013,09,10,01,29,12.90
2013,09,10,01,30,12.90
2013,09,10,01,31,12.80
2013,09,10,01,32,12.80
2013,09,10,01,33,12.80
2013,09,10,01,34,12.80
2013,09,10,01,35,12.70
2013,09,10,01,36,12.70
2013,09,10,01,37,12.70
2013,09,10,01,38,12.70
2013,09,10,01,39,12.70
2013,09,10,01,40,12.70
2013,09,10,01,41,12.70
2013,09,10,01,42,12.60
2013,09,10,01,43,12.60
2013,09,10,01,44,12.60
2013,09,10,01,45,12.60
2013,09,10,01,46,12.60
2013,09,10,01,47,12.60
2013,09,10,01,48,12.60
2013,09,10,01,49,12.60
2013,09,10,01,50,12.60
2013,09,10,01,51,12.60
2013,09,10,01,52,12.60
2013,09,10,01,53,12.50
2013,09,10,01,54,12.50
2013,09,10,01,55,12.50
2013,09,10,01,56,12.50
2013,09,10,01,57,12.40
2013,09,10,01,58,12.40
2013,09,10,01,59,12.40
2013,09,10,02,00,12.40
2013,09,10,02,01,12.30
2013,09,10,02,02,12.30
2013,09,10,02,03,12.30
2013,09,10,02,04,12.30
2013,09,10,02,05,12.30
2013,09,10,02,06,12.20
2013,09,10,02,07,12.20
2013,09,10,02,08,12.20
2013,09,10,02,09,12.20
2013,09,10,02,10,12.20
2013,09,10,02,11,12.10
2013,09,10,02,12,12.10
2013,09,10,02,13,12.10
2013,09,10,02,14,12.10
2013,09,10,02,15,12.10
2013,09,10,02,16,12.00
2013,09,10,02,17,12.00
2013,09,10,02,18,12.00
2013,09,10,02,19,12.00
2013,09,10,02,20,12.00
2013,09,10,02,21,11.90
2013,09,10,02,22,12.00
2013,09,10,02,23,12.00
2013,09,10,02,24,12.00
2013,09,10,02,25,12.00
2013,09,10,02,26,12.00
2013,09,10,02,27,12.00
2013,09,10,02,28,12.00
2013,09,10,02,29,12.00
2013,09,10,02,30,12.00
2013,09,10,02,31,12.00
2013,09,10,02,32,12.00
2013,09,10,02,33,11.90
2013,09,10,02,34,11.90
2013,09,10,02,35,11.90
2013,09,10,02,36,11.90
2013,09,10,02,37,11.90
2013,09,10,02,38,11.90
2013,09,10,02,39,11.90
2013,09,10,02,40,11.90
2013,09,10,02,41,11.80
2013,09,10,02,42,11.80
2013,09,10,02,43,11.80
2013,09,10,02,44,11.80
2013,09,10,02,45,11.80
2013,09,10,02,46,11.80
2013,09,10,02,47,11.80
2013,09,10,02,48,11.80
2013,09,10,02,49,11.70
2013,09,10,02,50,11.70
2013,09,10,02,51,11.70
2013,09,10,02,52,11.70
2013,09,10,02,53,11.70
2013,09,10,02,54,11.70
2013,09,10,02,55,11.70
2013,09,10,02,56,11.70
2013,09,10,02,57,11.70
2013,09,10,02,58,11.70
2013,09,10,02,59,11.70
2013,09,10,03,00,11.70
2013,09,10,03,01,11.70
2013,09,10,03,02,11.70
2013,09,10,03,03,11.70
2013,09,10,03,04,11.60
2013,09,10,03,05,11.60
2013,09,10,03,06,11.60
2013,09,10,03,07,11.60
2013,09,10,03,08,11.60
2013,09,10,03,09,11.60
2013,09,10,03,10,11.60
2013,09,10,03,11,11.60
2013,09,10,03,12,11.60
2013,09,10,03,13,11.60
2013,09,10,03,14,11.60
2013,09,10,03,15,11.60
2013,09,10,03,16,11.60
2013,09,10,03,17,11.60
2013,09,10,03,18,11.60
2013,09,10,03,19,11.60
2013,09,10,03,20,11.60
2013,09,10,03,21,11.60
2013,09,10,03,22,11.60
2013,09,10,03,23,11.50
2013,09,10,03,24,11.50
2013,09,10,03,25,11.50
2013,09,10,03,26,11.40
2013,09,10,03,27,11.40
2013,09,10,03,28,11.40
2013,09,10,03,29,11.40
2013,09,10,03,30,11.40
2013,09,10,03,31,11.40
2013,09,10,03,32,11.40
2013,09,10,03,33,11.40
2013,09,10,03,34,11.40
2013,09,10,03,35,11.40
2013,09,10,03,36,11.40
2013,09,10,03,37,11.40
2013,09,10,03,38,11.40
2013,09,10,03,39,11.50
2013,09,10,03,40,11.50
2013,09,10,03,41,11.50
2013,09,10,03,42,11.50
2013,09,10,03,43,11.50
2013,09,10,03,44,11.50
2013,09,10,03,45,11.50
2013,09,10,03,46,11.40
2013,09,10,03,47,11.40
2013,09,10,03,48,11.40
2013,09,10,03,49,11.40
2013,09,10,03,50,11.40
2013,09,10,03,51,11.40
2013,09,10,03,52,11.40
2013,09,10,03,53,11.40
2013,09,10,03,54,11.40
2013,09,10,03,55,11.40
2013,09,10,03,56,11.30
2013,09,10,03,57,11.30
2013,09,10,03,58,11.30
2013,09,10,03,59,11.30
2013,09,10,04,00,11.30
2013,09,10,04,01,11.30
2013,09,10,04,02,11.30
2013,09,10,04,03,11.30
2013,09,10,04,04,11.30
2013,09,10,04,05,11.30
2013,09,10,04,06,11.30
2013,09,10,04,07,11.30
2013,09,10,04,08,11.20
2013,09,10,04,09,11.20
2013,09,10,04,10,11.20
2013,09,10,04,11,11.20
2013,09,10,04,12,11.20
2013,09,10,04,13,11.20
2013,09,10,04,14,11.20
2013,09,10,04,15,11.20
2013,09,10,04,16,11.20
2013,09,10,04,17,11.20
2013,09,10,04,18,11.20
2013,09,10,04,19,11.20
2013,09,10,04,20,11.20
2013,09,10,04,21,11.20
2013,09,10,04,22,11.20
2013,09,10,04,23,11.20
2013,09,10,04,24,11.20
2013,09,10,04,25,11.20
2013,09,10,04,26,11.20
2013,09,10,04,27,11.20
2013,09,10,04,28,11.20
2013,09,10,04,29,11.20
2013,09,10,04,30,11.20
2013,09,10,04,31,11.20
2013,09,10,04,32,11.20
2013,09,10,04,33,11.20
2013,09,10,04,34,11.20
2013,09,10,04,35,11.20
2013,09,10,04,36,11.20
2013,09,10,04,37,11.20
2013,09,10,04,38,11.20
2013,09,10,04,39,11.20
2013,09,10,04,40,11.20
2013,09,10,04,41,11.20
2013,09,10,04,42,11.20
2013,09,10,04,43,11.20
2013,09,10,04,44,11.20
2013,09,10,04,45,11.20
2013,09,10,04,46,11.20
2013,09,10,04,47,11.20
2013,09,10,04,48,11.20
2013,09,10,04,49,11.20
2013,09,10,04,50,11.20
2013,09,10,04,51,11.20
2013,09,10,04,52,11.20
2013,09,10,04,53,11.20
2013,09,10,04,54,11.10
2013,09,10,04,55,11.10
2013,09,10,04,56,11.10
2013,09,10,04,57,11.10
2013,09,10,04,58,11.10
2013,09,10,04,59,11.10
2013,09,10,05,00,11.10
2013,09,10,05,01,11.10
2013,09,10,05,02,11.10
2013,09,10,05,03,11.10
2013,09,10,05,04,11.10
2013,09,10,05,05,11.10
2013,09,10,05,06,11.10
2013,09,10,05,07,11.10
2013,09,10,05,08,11.00
2013,09,10,05,09,11.00
2013,09,10,05,10,11.00
2013,09,10,05,11,11.00
2013,09,10,05,12,11.00
2013,09,10,05,13,11.00
2013,09,10,05,14,10.90
2013,09,10,05,15,10.90
2013,09,10,05,16,10.90
2013,09,10,05,17,10.90
2013,09,10,05,18,10.90
2013,09,10,05,19,10.90
2013,09,10,05,20,10.80
2013,09,10,05,21,10.80
2013,09,10,05,22,10.80
2013,09,10,05,23,10.80
2013,09,10,05,24,10.80
2013,09,10,05,25,10.80
2013,09,10,05,26,10.80
2013,09,10,05,27,10.70
2013,09,10,05,28,10.70
2013,09,10,05,29,10.70
2013,09,10,05,30,10.70
2013,09,10,05,31,10.70
2013,09,10,05,32,10.70
2013,09,10,05,33,10.70
2013,09,10,05,34,10.70
2013,09,10,05,35,10.70
2013,09,10,05,36,10.70
2013,09,10,05,37,10.70
2013,09,10,05,38,10.70
2013,09,10,05,39,10.70
2013,09,10,05,40,10.70
2013,09,10,05,41,10.80
2013,09,10,05,42,10.80
2013,09,10,05,43,10.80
2013,09,10,05,44,10.80
2013,09,10,05,45,10.80
2013,09,10,05,46,10.90
2013,09,10,05,47,10.90
2013,09,10,05,48,10.90
2013,09,10,05,49,10.90
2013,09,10,05,50,11.00
2013,09,10,05,51,11.00
2013,09,10,05,52,11.00
2013,09,10,05,53,11.00
2013,09,10,05,54,11.10
2013,09,10,05,55,11.10
2013,09,10,05,56,11.10
2013,09,10,05,57,11.10
2013,09,10,05,58,11.20
2013,09,10,05,59,11.20
2013,09,10,06,00,11.20
2013,09,10,06,01,11.20
2013,09,10,06,02,11.30
2013,09,10,06,03,11.30
2013,09,10,06,04,11.30
2013,09,10,06,05,11.30
2013,09,10,06,06,11.30
2013,09,10,06,07,11.30
2013,09,10,06,08,11.30
2013,09,10,06,09,11.30
2013,09,10,06,10,11.40
2013,09,10,06,11,11.40
2013,09,10,06,12,11.40
2013,09,10,06,13,11.40
2013,09,10,06,14,11.40
2013,09,10,06,15,11.40
2013,09,10,06,16,11.40
2013,09,10,06,17,11.40
2013,09,10,06,18,11.40
2013,09,10,06,19,11.40
2013,09,10,06,20,11.40
2013,09,10,06,21,11.40
2013,09,10,06,22,11.40
2013,09,10,06,23,11.40
2013,09,10,06,24,11.30
2013,09,10,06,25,11.30
2013,09,10,06,26,11.30
2013,09,10,06,27,11.30
2013,09,10,06,28,11.30
2013,09,10,06,29,11.30
2013,09,10,06,30,11.30
2013,09,10,06,31,11.40
2013,09,10,06,32,11.40
2013,09,10,06,33,11.40
2013,09,10,06,34,11.40
2013,09,10,06,35,11.40
2013,09,10,06,36,11.40
2013,09,10,06,37,11.40
2013,09,10,06,38,11.40
2013,09,10,06,39,11.40
2013,09,10,06,40,11.40
2013,09,10,06,41,11.40
2013,09,10,06,42,11.40
2013,09,10,06,43,11.30
2013,09,10,06,44,11.30
2013,09,10,06,45,11.30
2013,09,10,06,46,11.30
2013,09,10,06,47,11.40
2013,09,10,06,48,11.40
2013,09,10,06,49,11.40
2013,09,10,06,50,11.40
2013,09,10,06,51,11.50
2013,09,10,06,52,11.50
2013,09,10,06,53,11.50
2013,09,10,06,54,11.50
2013,09,10,06,55,11.50
2013,09,10,06,56,11.50
2013,09,10,06,57,11.50
2013,09,10,06,58,11.50
2013,09,10,06,59,11.60
2013,09,10,07,00,11.60
2013,09,10,07,01,11.60
2013,09,10,07,02,11.60
2013,09,10,07,03,11.60
2013,09,10,07,04,11.70
2013,09,10,07,05,11.70
2013,09,10,07,06,11.70
2013,09,10,07,07,11.70
2013,09,10,07,08,11.80
2013,09,10,07,09,11.80
2013,09,10,07,10,11.80
2013,09,10,07,11,11.80
2013,09,10,07,12,11.80
2013,09,10,07,13,11.80
2013,09,10,07,14,11.80
2013,09,10,07,15,11.80
2013,09,10,07,16,11.80
2013,09,10,07,17,11.70
2013,09,10,07,18,11.70
2013,09,10,07,19,11.70
2013,09,10,07,20,11.70
2013,09,10,07,21,11.70
2013,09,10,07,22,11.70
2013,09,10,07,23,11.70
2013,09,10,07,24,11.80
2013,09,10,07,25,11.80
2013,09,10,07,26,11.80
2013,09,10,07,27,11.80
2013,09,10,07,28,11.80
2013,09,10,07,29,11.90
2013,09,10,07,30,11.90
2013,09,10,07,31,11.90
2013,09,10,07,32,11.90
2013,09,10,07,33,11.90
2013,09,10,07,34,11.90
2013,09,10,07,35,11.90
2013,09,10,07,36,11.90
2013,09,10,07,37,11.90
2013,09,10,07,38,11.90
2013,09,10,07,39,11.90
2013,09,10,07,40,11.90
2013,09,10,07,41,11.90
2013,09,10,07,42,11.90
2013,09,10,07,43,12.00
2013,09,10,07,44,11.90
2013,09,10,07,45,12.00
2013,09,10,07,46,12.00
2013,09,10,07,47,12.00
2013,09,10,07,48,12.00
2013,09,10,07,49,12.00
2013,09,10,07,50,12.10
2013,09,10,07,51,12.10
2013,09,10,07,52,12.10
2013,09,10,07,53,12.10
2013,09,10,07,54,12.10
2013,09,10,07,55,12.20
2013,09,10,07,56,12.20
2013,09,10,07,57,12.20
2013,09,10,07,58,12.20
2013,09,10,07,59,12.20
2013,09,10,08,00,12.30
2013,09,10,08,01,12.30
2013,09,10,08,02,12.40
2013,09,10,08,03,12.40
2013,09,10,08,04,12.50
2013,09,10,08,05,12.60
2013,09,10,08,06,12.70
2013,09,10,08,07,12.80
2013,09,10,08,08,12.90
2013,09,10,08,09,13.00
2013,09,10,08,10,13.10
2013,09,10,08,11,13.20
2013,09,10,08,12,13.30
2013,09,10,08,13,13.40
2013,09,10,08,14,13.50
2013,09,10,08,15,13.70
2013,09,10,08,16,13.80
2013,09,10,08,17,13.80
2013,09,10,08,18,13.90
2013,09,10,08,19,14.00
2013,09,10,08,20,14.10
2013,09,10,08,21,14.10
2013,09,10,08,22,14.20
2013,09,10,08,23,14.30
2013,09,10,08,24,14.30
2013,09,10,08,25,14.40
2013,09,10,08,26,14.50
2013,09,10,08,27,14.50
2013,09,10,08,28,14.60
2013,09,10,08,29,14.60
2013,09,10,08,30,14.70
2013,09,10,08,31,14.80
2013,09,10,08,32,14.80
2013,09,10,08,33,14.90
2013,09,10,08,34,14.90
2013,09,10,08,35,15.00
2013,09,10,08,36,15.10
2013,09,10,08,37,15.10
2013,09,10,08,38,15.20
2013,09,10,08,39,15.20
2013,09,10,08,40,15.30
2013,09,10,08,41,15.30
2013,09,10,08,42,15.40
2013,09,10,08,43,15.40
2013,09,10,08,44,15.50
2013,09,10,08,45,15.60
2013,09,10,08,46,15.60
2013,09,10,08,47,15.70
2013,09,10,08,48,15.80
2013,09,10,08,49,15.90
2013,09,10,08,50,16.00
2013,09,10,08,51,16.10
2013,09,10,08,52,16.20
2013,09,10,08,53,16.30
2013,09,10,08,54,16.40
2013,09,10,08,55,16.40
2013,09,10,08,56,16.50
2013,09,10,08,57,16.50
2013,09,10,08,58,16.60
2013,09,10,08,59,16.60
2013,09,10,09,00,16.70
2013,09,10,09,01,16.70
2013,09,10,09,02,16.80
2013,09,10,09,03,16.80
2013,09,10,09,04,16.80
2013,09,10,09,05,16.90
2013,09,10,09,06,17.00
2013,09,10,09,07,17.10
2013,09,10,09,08,17.20
2013,09,10,09,09,17.20
2013,09,10,09,10,17.20
2013,09,10,09,11,17.20
2013,09,10,09,12,17.20
2013,09,10,09,13,17.30
2013,09,10,09,14,17.20
2013,09,10,09,15,17.30
2013,09,10,09,16,17.30
2013,09,10,09,17,17.40
2013,09,10,09,18,17.40
2013,09,10,09,19,17.40
2013,09,10,09,20,17.40
2013,09,10,09,21,17.40
2013,09,10,09,22,17.40
2013,09,10,09,23,17.40
2013,09,10,09,24,17.50
2013,09,10,09,25,17.50
2013,09,10,09,26,17.60
2013,09,10,09,27,17.60
2013,09,10,09,28,17.70
2013,09,10,09,29,17.80
2013,09,10,09,30,17.90
2013,09,10,09,31,17.90
2013,09,10,09,32,18.00
2013,09,10,09,33,18.10
2013,09,10,09,34,18.20
2013,09,10,09,35,18.30
2013,09,10,09,36,18.40
2013,09,10,09,37,18.50
2013,09,10,09,38,18.70
2013,09,10,09,39,18.80
2013,09,10,09,40,18.80
2013,09,10,09,41,18.90
2013,09,10,09,42,19.00
2013,09,10,09,43,19.10
2013,09,10,09,44,19.20
2013,09,10,09,45,19.20
2013,09,10,09,46,19.30
2013,09,10,09,47,19.40
2013,09,10,09,48,19.40
2013,09,10,09,49,19.50
2013,09,10,09,50,19.50
2013,09,10,09,51,19.60
2013,09,10,09,52,19.70
2013,09,10,09,53,19.80
2013,09,10,09,54,19.80
2013,09,10,09,55,19.90
2013,09,10,09,56,20.00
2013,09,10,09,57,20.10
2013,09,10,09,58,20.10
2013,09,10,09,59,20.20
2013,09,10,10,00,20.30
2013,09,10,10,01,20.30
2013,09,10,10,02,20.30
2013,09,10,10,03,20.30
2013,09,10,10,04,20.30
2013,09,10,10,05,20.40
2013,09,10,10,06,20.40
2013,09,10,10,07,20.40
2013,09,10,10,08,20.50
2013,09,10,10,09,20.50
2013,09,10,10,10,20.60
2013,09,10,10,11,20.70
2013,09,10,10,12,20.80
2013,09,10,10,13,20.90
2013,09,10,10,14,21.00
2013,09,10,10,15,21.00
2013,09,10,10,16,21.10
2013,09,10,10,17,21.20
2013,09,10,10,18,21.20
2013,09,10,10,19,21.30
2013,09,10,10,20,21.30
2013,09,10,10,21,21.40
2013,09,10,10,22,21.40
2013,09,10,10,23,21.40
2013,09,10,10,24,21.50
2013,09,10,10,25,21.50
2013,09,10,10,26,21.60
2013,09,10,10,27,21.60
2013,09,10,10,28,21.70
2013,09,10,10,29,21.70
2013,09,10,10,30,21.70
2013,09,10,10,31,21.80
2013,09,10,10,32,21.90
2013,09,10,10,33,21.90
2013,09,10,10,34,22.00
2013,09,10,10,35,22.10
2013,09,10,10,36,22.10
2013,09,10,10,37,22.20
2013,09,10,10,38,22.20
2013,09,10,10,39,22.30
2013,09,10,10,40,22.40
2013,09,10,10,41,22.40
2013,09,10,10,42,22.50
2013,09,10,10,43,22.50
2013,09,10,10,44,22.50
2013,09,10,10,45,22.60
2013,09,10,10,46,22.60
2013,09,10,10,47,22.60
2013,09,10,10,48,22.60
2013,09,10,10,49,22.60
2013,09,10,10,50,22.60
2013,09,10,10,51,22.60
2013,09,10,10,52,22.70
2013,09,10,10,53,22.60
2013,09,10,10,54,22.60
2013,09,10,10,55,22.60
2013,09,10,10,56,22.60
2013,09,10,10,57,22.60
2013,09,10,10,58,22.60
2013,09,10,10,59,22.60
2013,09,10,11,00,22.70
2013,09,10,11,01,22.80
2013,09,10,11,02,22.80
2013,09,10,11,03,22.80
2013,09,10,11,04,22.80
2013,09,10,11,05,22.80
2013,09,10,11,06,22.80
2013,09,10,11,07,22.80
2013,09,10,11,08,22.80
2013,09,10,11,09,22.80
2013,09,10,11,10,22.80
2013,09,10,11,11,22.80
2013,09,10,11,12,22.80
2013,09,10,11,13,22.80
2013,09,10,11,14,22.80
2013,09,10,11,15,22.80
2013,09,10,11,16,22.80
2013,09,10,11,17,22.80
2013,09,10,11,18,22.80
2013,09,10,11,19,22.80
2013,09,10,11,20,22.80
2013,09,10,11,21,22.80
2013,09,10,11,22,22.90
2013,09,10,11,23,22.90
2013,09,10,11,24,22.90
2013,09,10,11,25,23.00
2013,09,10,11,26,23.00
2013,09,10,11,27,23.10
2013,09,10,11,28,23.10
2013,09,10,11,29,23.10
2013,09,10,11,30,23.20
2013,09,10,11,31,23.10
2013,09,10,11,32,23.10
2013,09,10,11,33,23.10
2013,09,10,11,34,23.20
2013,09,10,11,35,23.10
2013,09,10,11,36,23.00
2013,09,10,11,37,23.00
2013,09,10,11,38,22.90
2013,09,10,11,39,23.00
2013,09,10,11,40,23.00
2013,09,10,11,41,23.00
2013,09,10,11,42,22.90
2013,09,10,11,43,22.90
2013,09,10,11,44,23.00
2013,09,10,11,45,23.10
2013,09,10,11,46,23.20
2013,09,10,11,47,23.20
2013,09,10,11,48,23.30
2013,09,10,11,49,23.40
2013,09,10,11,50,23.50
2013,09,10,11,51,23.60
2013,09,10,11,52,23.70
2013,09,10,11,53,23.80
2013,09,10,11,54,23.80
2013,09,10,11,55,23.90
2013,09,10,11,56,23.90
2013,09,10,11,57,23.90
2013,09,10,11,58,23.90
2013,09,10,11,59,23.90
2013,09,10,12,00,23.80
2013,09,10,12,01,23.90
2013,09,10,12,02,23.90
2013,09,10,12,03,24.00
2013,09,10,12,04,24.00
2013,09,10,12,05,24.10
2013,09,10,12,06,24.20
2013,09,10,12,07,24.30
2013,09,10,12,08,24.40
2013,09,10,12,09,24.50
2013,09,10,12,10,24.60
2013,09,10,12,11,24.70
2013,09,10,12,12,24.70
2013,09,10,12,13,24.80
2013,09,10,12,14,24.80
2013,09,10,12,15,24.80
2013,09,10,12,16,24.80
2013,09,10,12,17,24.80
2013,09,10,12,18,24.80
2013,09,10,12,19,24.80
2013,09,10,12,20,24.80
2013,09,10,12,21,24.80
2013,09,10,12,22,24.80
2013,09,10,12,23,24.80
2013,09,10,12,24,24.80
2013,09,10,12,25,24.70
2013,09,10,12,26,24.70
2013,09,10,12,27,24.70
2013,09,10,12,28,24.60
2013,09,10,12,29,24.50
2013,09,10,12,30,24.40
2013,09,10,12,31,24.30
2013,09,10,12,32,24.30
2013,09,10,12,33,24.30
2013,09,10,12,34,24.20
2013,09,10,12,35,24.20
2013,09,10,12,36,24.10
2013,09,10,12,37,24.10
2013,09,10,12,38,24.10
2013,09,10,12,39,24.10
2013,09,10,12,40,24.10
2013,09,10,12,41,24.20
2013,09,10,12,42,24.20
2013,09,10,12,43,24.20
2013,09,10,12,44,24.20
2013,09,10,12,45,24.20
2013,09,10,12,46,24.20
2013,09,10,12,47,24.20
2013,09,10,12,48,24.20
2013,09,10,12,49,24.20
2013,09,10,12,50,24.20
2013,09,10,12,51,24.20
2013,09,10,12,52,24.20
2013,09,10,12,53,24.20
2013,09,10,12,54,24.20
2013,09,10,12,55,24.20
2013,09,10,12,56,24.20
2013,09,10,12,57,24.30
2013,09,10,12,58,24.30
2013,09,10,12,59,24.30
2013,09,10,13,00,24.30
2013,09,10,13,01,24.30
2013,09,10,13,02,24.30
2013,09,10,13,03,24.30
2013,09,10,13,04,24.40
2013,09,10,13,05,24.40
2013,09,10,13,06,24.40
2013,09,10,13,07,24.40
2013,09,10,13,08,24.40
2013,09,10,13,09,24.40
2013,09,10,13,10,24.40
2013,09,10,13,11,24.40
2013,09,10,13,12,24.40
2013,09,10,13,13,24.40
2013,09,10,13,14,24.50
2013,09,10,13,15,24.50
2013,09,10,13,16,24.60
2013,09,10,13,17,24.70
2013,09,10,13,18,24.80
2013,09,10,13,19,24.80
2013,09,10,13,20,24.80
2013,09,10,13,21,24.80
2013,09,10,13,22,24.80
2013,09,10,13,23,24.80
2013,09,10,13,24,24.70
2013,09,10,13,25,24.50
2013,09,10,13,26,24.40
2013,09,10,13,27,24.30
2013,09,10,13,28,24.20
2013,09,10,13,29,24.20
2013,09,10,13,30,24.20
2013,09,10,13,31,24.30
2013,09,10,13,32,24.40
2013,09,10,13,33,24.40
2013,09,10,13,34,24.50
2013,09,10,13,35,24.60
2013,09,10,13,36,24.70
2013,09,10,13,37,24.70
2013,09,10,13,38,24.70
2013,09,10,13,39,24.80
2013,09,10,13,40,24.80
2013,09,10,13,41,24.80
2013,09,10,13,42,24.90
2013,09,10,13,43,24.90
2013,09,10,13,44,25.00
2013,09,10,13,45,25.00
2013,09,10,13,46,25.00
2013,09,10,13,47,25.00
2013,09,10,13,48,24.90
2013,09,10,13,49,25.00
2013,09,10,13,50,25.00
2013,09,10,13,51,25.10
2013,09,10,13,52,25.10
2013,09,10,13,53,25.20
2013,09,10,13,54,25.30
2013,09,10,13,55,25.30
2013,09,10,13,56,25.30
2013,09,10,13,57,25.20
2013,09,10,13,58,25.10
2013,09,10,13,59,25.00
2013,09,10,14,00,25.00
2013,09,10,14,01,25.00
2013,09,10,14,02,25.00
2013,09,10,14,03,25.10
2013,09,10,14,04,25.20
2013,09,10,14,05,25.20
2013,09,10,14,06,25.30
2013,09,10,14,07,25.30
2013,09,10,14,08,25.30
2013,09,10,14,09,25.30
2013,09,10,14,10,25.30
2013,09,10,14,11,25.30
2013,09,10,14,12,25.30
2013,09,10,14,13,25.30
2013,09,10,14,14,25.40
2013,09,10,14,15,25.40
2013,09,10,14,16,25.30
2013,09,10,14,17,25.30
2013,09,10,14,18,25.20
2013,09,10,14,19,25.10
2013,09,10,14,20,25.10
2013,09,10,14,21,25.00
2013,09,10,14,22,24.90
2013,09,10,14,23,24.80
2013,09,10,14,24,24.80
2013,09,10,14,25,24.70
2013,09,10,14,26,24.70
2013,09,10,14,27,24.80
2013,09,10,14,28,24.80
2013,09,10,14,29,24.80
2013,09,10,14,30,24.80
2013,09,10,14,31,24.80
2013,09,10,14,32,24.90
2013,09,10,14,33,25.00
2013,09,10,14,34,25.10
2013,09,10,14,35,25.20
2013,09,10,14,36,25.20
2013,09,10,14,37,25.30
2013,09,10,14,38,25.30
2013,09,10,14,39,25.30
2013,09,10,14,40,25.20
2013,09,10,14,41,25.20
2013,09,10,14,42,25.30
2013,09,10,14,43,25.30
2013,09,10,14,44,25.30
2013,09,10,14,45,25.30
2013,09,10,14,46,25.30
2013,09,10,14,47,25.20
2013,09,10,14,48,25.20
2013,09,10,14,49,25.10
2013,09,10,14,50,25.10
2013,09,10,14,51,25.10
2013,09,10,14,52,25.20
2013,09,10,14,53,25.20
2013,09,10,14,54,25.20
2013,09,10,14,55,25.20
2013,09,10,14,56,25.20
2013,09,10,14,57,25.10
2013,09,10,14,58,25.10
2013,09,10,14,59,25.10
2013,09,10,15,00,25.10
2013,09,10,15,01,25.10
2013,09,10,15,02,25.10
2013,09,10,15,03,25.10
2013,09,10,15,04,25.10
2013,09,10,15,05,25.10
2013,09,10,15,06,25.10
2013,09,10,15,07,25.20
2013,09,10,15,08,25.20
2013,09,10,15,09,25.20
2013,09,10,15,10,25.30
2013,09,10,15,11,25.30
2013,09,10,15,12,25.40
2013,09,10,15,13,25.40
2013,09,10,15,14,25.40
2013,09,10,15,15,25.50
2013,09,10,15,16,25.50
2013,09,10,15,17,25.50
2013,09,10,15,18,25.50
2013,09,10,15,19,25.50
2013,09,10,15,20,25.50
2013,09,10,15,21,25.50
2013,09,10,15,22,25.60
2013,09,10,15,23,25.60
2013,09,10,15,24,25.70
2013,09,10,15,25,25.70
2013,09,10,15,26,25.80
2013,09,10,15,27,25.80
2013,09,10,15,28,25.80
2013,09,10,15,29,25.80
2013,09,10,15,30,25.90
2013,09,10,15,31,25.90
2013,09,10,15,32,25.90
2013,09,10,15,33,25.90
2013,09,10,15,34,25.90
2013,09,10,15,35,25.90
2013,09,10,15,36,25.90
2013,09,10,15,37,25.90
2013,09,10,15,38,25.90
2013,09,10,15,39,25.90
2013,09,10,15,40,25.90
2013,09,10,15,41,25.90
2013,09,10,15,42,25.90
2013,09,10,15,43,25.90
2013,09,10,15,44,25.90
2013,09,10,15,45,25.90
2013,09,10,15,46,25.90
2013,09,10,15,47,25.90
2013,09,10,15,48,25.90
2013,09,10,15,49,25.90
2013,09,10,15,50,25.90
2013,09,10,15,51,25.90
2013,09,10,15,52,25.90
2013,09,10,15,53,25.70
2013,09,10,15,54,25.70
2013,09,10,15,55,25.60
2013,09,10,15,56,25.60
2013,09,10,15,57,25.60
2013,09,10,15,58,25.50
2013,09,10,15,59,25.50
2013,09,10,16,00,25.50
2013,09,10,16,01,25.40
2013,09,10,16,02,25.40
2013,09,10,16,03,25.40
2013,09,10,16,04,25.40
2013,09,10,16,05,25.40
2013,09,10,16,06,25.40
2013,09,10,16,07,25.40
2013,09,10,16,08,25.40
2013,09,10,16,09,25.40
2013,09,10,16,10,25.40
2013,09,10,16,11,25.40
2013,09,10,16,12,25.30
2013,09,10,16,13,25.30
2013,09,10,16,14,25.30
2013,09,10,16,15,25.30
2013,09,10,16,16,25.30
2013,09,10,16,17,25.30
2013,09,10,16,18,25.40
2013,09,10,16,19,25.40
2013,09,10,16,20,25.40
2013,09,10,16,21,25.40
2013,09,10,16,22,25.40
2013,09,10,16,23,25.40
2013,09,10,16,24,25.40
2013,09,10,16,25,25.40
2013,09,10,16,26,25.40
2013,09,10,16,27,25.40
2013,09,10,16,28,25.50
2013,09,10,16,29,25.50
2013,09,10,16,30,25.50
2013,09,10,16,31,25.50
2013,09,10,16,32,25.50
2013,09,10,16,33,25.50
2013,09,10,16,34,25.40
2013,09,10,16,35,25.40
2013,09,10,16,36,25.40
2013,09,10,16,37,25.40
2013,09,10,16,38,25.40
2013,09,10,16,39,25.40
2013,09,10,16,40,25.40
2013,09,10,16,41,25.40
2013,09,10,16,42,25.40
2013,09,10,16,43,25.40
2013,09,10,16,44,25.40
2013,09,10,16,45,25.40
2013,09,10,16,46,25.40
2013,09,10,16,47,25.40
2013,09,10,16,48,25.40
2013,09,10,16,49,25.40
2013,09,10,16,50,25.40
2013,09,10,16,51,25.40
2013,09,10,16,52,25.40
2013,09,10,16,53,25.30
2013,09,10,16,54,25.30
2013,09,10,16,55,25.20
2013,09,10,16,56,25.20
2013,09,10,16,57,25.10
2013,09,10,16,58,25.10
2013,09,10,16,59,25.10
2013,09,10,17,00,25.10
2013,09,10,17,01,25.10
2013,09,10,17,02,25.10
2013,09,10,17,03,25.10
2013,09,10,17,04,25.00
2013,09,10,17,05,25.00
2013,09,10,17,06,25.00
2013,09,10,17,07,25.00
2013,09,10,17,08,25.00
2013,09,10,17,09,25.00
2013,09,10,17,10,25.00
2013,09,10,17,11,25.00
2013,09,10,17,12,25.00
2013,09,10,17,13,25.00
2013,09,10,17,14,25.00
2013,09,10,17,15,25.00
2013,09,10,17,16,25.00
2013,09,10,17,17,25.00
2013,09,10,17,18,25.00
2013,09,10,17,19,25.00